Starlink 30392

operational
NORAD ID: 57855 Int'l Des: 2023-141 Owner: SPXS Country: US Constellation: starlink
LEOCIRCULAR

关于 Starlink 30392

正在加载描述...

实时位置

正在加载3D地球...

即将过境

高度历史

Altitude vs Time

uPlot chart will show altitude changes over time

两行轨道根数

1 57855U 23141R 25257.54533325 .00007322 00000-0 25953-3 0 9993
2 57855 53.1623 22.0020 0001870 86.1118 274.0096 15.30145354113362
Epoch: Sep 14, 2025 • Age: 21 hours

当前状态

高度 493.5 km
速度 7.62 km/s
星下点 -49.29°S, 104.79°E
发射日期 Sep 12, 2023
运行时间 2 years
类型 internet

技术详情

分类 Payload
质量 730.00 kg
干质量 700.00 kg
总质量 730.00 kg
长度 0.30 m
直径 4.10 m
跨度 29.00 m
形状 Box + pan
制造商 SPXS
平台类型 Starlink V2M
阶段状态 In Orbit
所有者/国家 SPXS/US

大型星座

Loading constellations...